Regional Weather Roundup
Issued by NWS Grand Forks, ND

Home | Current Version | Previous Version | Text Only | Print | Product List | Glossary On
Versions: 1 2 3 4 5 6 7 8 9 10 11 12 13 14 15 16 17 18 19 20 21 22 23 24 25 26 27 28 29 30 31 32 33 34 35 36 37 38 39 40 41 42 43 44 45 46 47 48 49 50
000
ASUS43 KFGF 281031
RWRFGF
PRAIRIE TO PINES  WEATHER ROUNDUP
NATIONAL WEATHER SERVICE EASTERN NORTH DAKOTA/GRAND FORKS ND
400 AM CST SUN DEC 28 2014

 **SATELLITE DATA USED TO AUGMENT SKY COVER AT AUTOMATED STATIONS**
 *****  WEATHER ACROSS EASTERN NORTH DAKOTA  *****

CITY           SKY/WX    TMP DP  RH WIND       PRES   REMARKS
GRAND FORKS    CLEAR     -1  -6  79 N13       30.21R WCI -19
GRAND FRKS AFB PTCLDY     0  -4  85 N12       30.21R WCI -18
GRAND FRKS NWS   N/A     -2 N/A N/A VRB10       N/A  WCI -19
DEVILS LAKE    CLOUDY     1  -6  71 NE9       30.12S WCI -14
FARGO          CLOUDY    11   6  81 N20       30.12S WCI  -7
WAHPETON ARPT  CLOUDY    18  12  79 N13G18    30.10R WCI   4
$$

 ***** WEATHER ACROSS CENTRAL AND WESTERN NORTH DAKOTA  *****

CITY           SKY/WX    TMP DP  RH WIND       PRES   REMARKS
BISMARCK       LGT SNOW  16  14  92 NE3       30.06R FOG
MINOT          CLOUDY     0  -7  72 N9        30.10R WCI -15
JAMESTOWN      CLOUDY    11   8  88 NE10      30.08S WCI  -3
MINOT AFB      CLOUDY    -3  -8  78 N8        30.11R WCI -17
GARRISON         N/A     11   6  81 NE6       30.06R WCI   1
WILLISTON      CLOUDY    16  11  80 E5        30.03R WCI   9
DICKINSON      CLOUDY    19  15  84 E6        29.94S WCI  11
HETTINGER      CLEAR      6   3  87 CALM      29.96S
$$

 *****  OTHER AIRPORT OBSERVATIONS IN OUR AREA  *****

CITY           SKY/WX    TMP DP  RH WIND       PRES   REMARKS
WALHALLA         N/A     -8 N/A N/A N8        30.24R WCI -23
GRAFTON AIRPOR NOT AVBL
VALLEY CITY AR CLOUDY     7   7 100 NE13      30.10S WCI  -9
CANDO          CLOUDY     1  -2  85 NE7       30.15R WCI -11
CAVALIER APRT  FAIR      -8 -11  84 N9        30.23R WCI -25
GWINNER        CLOUDY    16  14  93 N15       30.10R WCI   1
SHEYENNE NWR     N/A     13   8  81 N9        29.95S WCI   1
ROLLA          PTSUNNY   -8 -11  84 NE7       30.12R WCI -22
 ***** THE ABOVE OBSERVATIONS ARE NON NWS ARE NOT QUALITY
       CONTROLLED AND MAY MIS-REPORT RAIN FOR SNOW...
$$

  *****  WEATHER ACROSS NORTHERN MINNESOTA  *****

CITY           SKY/WX    TMP DP  RH WIND       PRES   REMARKS
FLAG ISLAND    CLEAR     -6 -11  77 NW13      30.13R WCI -25
WARROAD        MOCLDY     0  -8  71 NW6       30.14R WCI -12
ROSEAU         CLEAR     -4  -9  77 NW6       30.16R WCI -16
HALLOCK        CLEAR     -8 -15  71 N12       30.22R WCI -27
THF RVR FALLS  PTCLDY    -2  -8  78 NW8       30.14S WCI -17
BAUDETTE       CLOUDY     0  -6  76 NW13      30.10S WCI -18
WASKISH        CLOUDY    -2  -6  84 CALM      30.11R
CROOKSTON      CLEAR      0  -8  71 N9        30.20S WCI -16
STEPHEN NDAWN    N/A     -8 -13  77 N10         N/A  WCI -26
GREENBUSH NDAW   N/A     -8 -11  84 NW9         N/A  WCI -25
$$
  *****  WEATHER ACROSS CENTRAL AND WEST MINNESOTA  *****

CITY           SKY/WX    TMP DP  RH WIND       PRES   REMARKS
FOSSTON        CLOUDY     0  -4  85 N13       30.12R WCI -18
BEMIDJI        FLURRIES   8   4  83 NW7       30.07R WCI  -4
PARK RAPIDS    CLOUDY    17  11  77 N13       30.03R WCI   4
ELBOW LAKE     CLOUDY    17  15  93 W5        30.05R WCI   9
WADENA         CLOUDY    21  18  86 NW8       30.02S WCI  12
DETROIT LAKES  CLOUDY    16  14  93 N6        30.06S WCI   7
MOORHEAD       MIX PCPN  12  10  92 N17       30.13R WCI  -5
FERGUS FALLS   PTCLDY    19  16  86 N10       30.09R WCI   8
MORRIS MN      PTCLDY    16  12  86 W5        30.05S WCI   9
STAPLES        CLOUDY    21  18  86 NW5       30.02S WCI  15
$$
  *****  WEATHER ELSEWHERE ACROSS MINNESOTA  *****

CITY           SKY/WX    TMP DP  RH WIND       PRES   REMARKS
DULUTH         FLURRIES  18  11  74 NW9       29.98S WCI   7
INTRNTL FALLS  CLOUDY    -2  -6  83 NW12      30.08R WCI -20
ELY            PTCLDY     7   1  78 NW8G18    29.99R WCI  -6
CLOQUET        FLURRIES  19  14  79 NW8       30.00S WCI   9
WHEATON        CLOUDY    18  16  93 NW6       30.10R WCI   9
BRAINERD       CLOUDY    20  17  88 W6        30.03S WCI  12
HIBBING        LGT SNOW  14   8  77 NW12      30.01S WCI   0
ALEXANDRIA     MOCLDY    17  14  88 NW5       30.04R WCI  10
SAINT CLOUD    PTCLDY    17  11  77 S3        30.06R
MINNEAPOLIS    CLEAR     11   6  81 SW5       30.10S WCI   3
$$

  *****  WEATHER ACROSS SOUTH DAKOTA  *****

CITY           SKY/WX    TMP DP  RH WIND       PRES   REMARKS
SIOUX FALLS    PTCLDY     2   0  91 CALM      30.08S
BROOKINGS      NOT AVBL
WATERTOWN      PTCLDY     5   3  91 CALM      30.04S
HURON          CLEAR      1  -1  91 CALM      30.08S
SISSETON         N/A     17  15  92 NW6       30.06S WCI   9
ABERDEEN       CLOUDY    11   6  81 CALM      30.08S
MITCHELL       CLEAR     10   6  84 W5        30.09S WCI   2
PIERRE         CLEAR     12   8  84 SW8       30.04S WCI   0
MOBRIDGE       MOCLDY    10   7  87 CALM      30.01R
RAPID CITY     CLEAR     10   3  73 CALM      29.96S
$$

  *****  SOME WEATHER IN NEARBY STATES *****

CITY           SKY/WX    TMP DP  RH WIND       PRES   REMARKS
GLASGOW MT     CLOUDY    19  15  84 E20       29.93R WCI   3
GREAT FALLS MT CLOUDY    28  24  85 SW9       29.78R WCI  19
CHEYENNE WY    PTCLDY    15   1  53 SW6       29.91F WCI   6
SCOTTSBLUFF NE CLEAR     -3  -7  82 SE3       30.00F
OMAHA NE       CLEAR     18  14  84 S8        30.18F WCI   8
DES MOINES IA  CLEAR     17  13  84 S7        30.19F WCI   8
DAVENPORT IA   CLEAR     18  14  84 W8        30.19S WCI   8
CHICAGO IL     CLEAR     25  19  78 W10       30.12R WCI  15
EAU CLAIRE WI  CLOUDY    12   7  80 W5        30.09S WCI   4
LA CROSSE WI   CLEAR     14   9  80 S5        30.14F WCI   6
$$

  *****  SOME NATIONAL WEATHER *****

CITY           SKY/WX    TMP DP  RH WIND       PRES   REMARKS
LA GUARDIA NY  CLOUDY    47  37  68 SW5       29.89F
RALEIGH NC     CLOUDY    52  44  74 SW8       30.08F
ATLANTA GA     LGT RAIN  55  54  94 S9        30.10F
NEW ORLEANS LA FOG       65  64  97 S6        30.06S VSB 1/8
OKLAHOMA CITY  CLOUDY    25  18  74 NW3       30.25F
ALBUQUERQUE NM CLEAR     23   9  55 N3        30.23S
SALT LAKE CITY CLOUDY    26  16  65 SE9       30.17F WCI  17
LOS ANGELES CA PTCLDY    46  24  42 E3        30.29S
BOISE ID       LGT SNOW  30  30 100 E5        30.06S FOG
SEATTLE WA     CLOUDY    42  39  89 S6        30.10R
$$

*** WEATHER ACROSS MANITOBA...SASKATCHEWAN AND ONTARIO ***
                ***ONTARIO***

CITY           SKY/WX    TMP DP  RH WIND       PRES   REMARKS
GERALDTON      MOCLDY     1  -4  78 W10G20    29.86S WCI -14
THUNDER BAY    FLURRIES  12   5  73 NW10      29.98S WCI  -1
SIOUX LOOKOUT  FLURRIES  -2  -8  78 NW7       29.99S WCI -16
TORONTO        MOCLDY    36  30  80 NW16G26   29.90R
BIG TROUT LK   FLURRIES -18 -24  76 W10       29.92S WCI -39
PICKLE LAKE    NOT AVBL
DRYDEN         CLEAR     -9 -13  84 W7        30.02R WCI -24
KENORA         CLEAR    -13 -17  84 NW8       30.08R WCI -30
$$
                *** MANITOBA***

CITY           SKY/WX    TMP DP  RH WIND       PRES   REMARKS
BRANDON        CLOUDY    -6 -11  77 E3        30.19R
DAUPHIN        CLEAR    -22 -27  76 NE5       30.24R WCI -36
ISLAND LAKE    PTCLDY   -24 -31  69 W9        30.08R WCI -45
PILOT MOUND      N/A     -6  -9  84 N7          N/A  WCI -20
THE PAS        CLEAR    -22 -27  76 NW8       30.26R WCI -41
THOMPSON       PTCLDY   -18 -26  69 NW5       30.17R WCI -31
WINNIPEG       CLEAR    -20 -26  76 NW7       30.25  WCI -37
CHURCHILL      CRYSTALS -17 -22  76 N20       30.12  BLWGSNOWWCI -44
GILLAM         CLEAR    -20 -26  76 NW9       30.09R WCI -40
$$
                ***SASKATCHEWAN***

CITY           SKY/WX    TMP DP  RH WIND       PRES   REMARKS
ESTEVAN        CLOUDY    -2  -9  71 E12       30.09R WCI -20
KINDERSLEY     FLURRIES   1  -4  78 NE15      30.07R WCI -18
LLOYDMINSTER   MOCLDY    -8 -13  77 NE6       30.17R WCI -21
PRINCE ALBERT  CLEAR    -27 -33  75 W2        30.27R
REGINA         MOCLDY    -8 -13  77 CALM      30.13R
YORKTON        CLEAR    -22 -27  76 W6        30.19R WCI -38
N. BATTLEFORD  MOCLDY   -17 -20  83 E7        30.24R WCI -33
LA RONGE       CLEAR    -31 -36  75 CALM      30.32R
SASKATOON      PTCLDY   -20 -26  76 NE7       30.23R WCI -37
SWIFT CURRENT  CLOUDY    10   9  92 E14       29.98R WCI  -5
$$
NOTE: THESE ARE AUTOMATED STATIONS WITH LIMITED QUALITY CONTROL
      "FAIR" INDICATES FEW OR NO CLOUDS BELOW 12,000 FEET WITH NO
      SIGNIFICANT WEATHER AND/OR OBSTRUCTIONS TO VISIBILITY.
      SKY/WX - SKY CONDITION AND SIGNIFICANT WEATHER.
      TMP - AIR TEMPERATURE.    DP   - DEWPOINT TEMPERATURE.
      RH  - RELATIVE HUMIDITY.  PRES - PRESSURE.
      HX  - HEAT INDEX.         WCI  - WIND CHILL INDEX.
$



USA.gov is the U.S. government's official web portal to all federal, state and local government web resources and services.